Wind_Speed
12 10 5 4 2 2 0 2 2 0 3 2 12 4 5 4 0 1 13 22 24 23 21 18 15 12 11 11 12 12 13 13 14 14 15 15 16 16 17 17 16 16 15 15 15 15 15 14 14
12 8 3 2 0 2 2 1 5 1 5 5 8 3 2 1 1 4 23 21 24 23 22 19 16 14 12 12 13 13 13 13 14 14 15 15 16 16 16 15 15 15 14 13 13 13 13 12 13
9 5 3 2 1 1 3 4 4 2 5 7 3 5 4 4 2 16 21 24 26 24 21 18 16 14 12 12 13 13 14 14 14 14 14 14 15 15 15 14 14 13 12 11 10 10 10 10 9
7 3 3 2 2 0 3 6 1 6 4 3 4 4 3 1 11 12 22 24 25 23 21 18 15 14 12 12 13 13 13 13 13 13 13 13 13 14 13 13 12 11 10 9 8 8 8 7 6
3 2 2 1 3 2 3 5 4 7 2 3 2 3 3 9 8 16 18 22 23 24 21 18 16 14 12 11 12 12 12 12 13 12 12 13 13 13 12 12 11 9 8 7 6 5 5 5 5
1 1 1 1 3 4 6 4 5 4 3 3 4 6 5 7 12 16 18 22 22 22 21 18 16 14 13 12 11 11 11 11 12 12 12 12 12 12 11 10 9 8 7 6 4 4 4 4 5
1 0 2 2 3 3 1 3 8 5 1 2 6 6 4 13 15 15 19 21 21 21 19 18 16 15 14 12 11 11 10 10 10 10 10 10 10 10 10 9 8 7 7 5 4 3 2 3 5
3 1 3 3 0 4 2 5 5 4 4 5 7 4 6 18 20 19 21 21 21 22 20 18 17 16 15 14 12 11 10 10 9 9 9 9 9 9 8 8 7 6 6 4 3 2 0 2 3
4 3 2 2 2 6 3 6 5 6 5 4 5 2 5 20 23 25 24 23 23 23 21 20 19 17 16 15 13 12 11 10 9 9 9 8 8 8 7 6 6 5 4 3 2 2 3 4 5
4 4 3 2 2 5 7 4 5 6 8 7 6 6 11 21 24 26 26 26 25 24 23 21 20 19 18 17 15 13 12 11 10 9 8 8 7 6 6 6 6 4 3 3 4 5 7 7 7
5 8 4 3 5 2 2 3 5 6 8 9 13 14 20 24 25 25 25 24 23 22 23 22 21 20 19 18 16 14 13 12 10 9 8 8 6 5 5 4 5 5 5 4 5 6 7 8 8
5 6 4 2 4 1 3 1 4 10 6 7 11 16 25 28 26 25 25 24 23 23 21 21 21 21 19 18 16 15 13 11 10 8 8 7 6 6 6 6 7 6 6 8 9 9 10 11 12
5 3 4 5 6 8 8 9 8 13 10 5 13 19 28 30 26 24 23 23 22 21 19 20 20 19 19 18 16 14 12 10 8 8 8 7 7 7 6 7 9 8 8 8 10 12 13 14 16
3 4 3 6 5 6 6 2 3 10 12 12 12 20 28 32 30 27 28 26 25 22 20 18 17 18 18 17 16 13 12 10 8 9 7 6 7 7 6 7 10 11 11 10 11 12 14 16 17
1 3 3 7 5 6 8 4 7 6 7 13 18 20 24 33 29 31 29 28 29 27 21 18 17 17 18 18 17 16 15 12 10 10 10 9 8 9 9 11 11 12 12 13 13 14 16 17 18
2 1 8 6 5 2 9 16 11 8 7 10 16 18 25 30 31 31 31 30 31 29 26 23 21 20 20 19 18 18 18 16 14 13 14 13 12 14 14 15 15 17 14 14 14 17 19 17 16
2 5 4 4 1 2 8 8 7 5 9 10 18 23 25 28 30 30 31 33 32 30 30 29 27 26 24 22 20 19 19 19 18 17 17 16 16 17 18 16 17 19 18 18 16 18 19 16 16
3 3 3 6 3 2 3 10 13 13 9 15 17 25 26 27 34 31 33 34 34 33 30 31 30 30 27 26 24 23 23 20 19 20 20 22 19 14 15 18 16 14 14 14 17 15 14 17 16
2 4 9 8 9 7 14 12 13 13 13 17 17 23 28 32 37 34 36 36 34 35 34 33 33 34 33 31 30 27 25 22 20 18 11 11 15 15 17 17 14 9 8 10 10 11 14 15 14
5 7 11 9 6 5 11 15 15 13 11 13 20 23 30 37 32 39 40 39 38 38 37 35 36 37 37 32 33 32 28 24 21 18 15 14 15 16 13 12 9 8 8 10 11 14 14 12 12
7 11 7 9 5 10 12 13 10 5 8 12 17 21 23 32 36 37 41 40 36 37 38 37 36 36 37 34 35 33 28 24 22 20 19 19 16 13 10 6 6 9 8 7 7 8 6 5 7
10 9 11 9 4 6 2 8 10 9 8 10 15 17 21 26 29 32 38 39 36 35 33 30 30 33 36 35 35 33 32 29 25 22 17 15 11 10 9 7 6 6 4 2 0 2 3 3 3
5 2 6 7 8 7 12 7 9 4 7 10 11 16 18 21 24 26 35 34 33 32 29 27 28 31 33 32 31 30 30 28 23 21 15 13 10 9 6 4 4 3 3 0 2 3 3 5 5
4 10 6 2 4 11 16 12 12 12 11 10 9 13 16 17 22 27 28 32 31 28 27 27 29 32 32 30 31 30 30 27 25 22 18 15 12 9 8 6 5 2 1 2 3 5 6 6 6
7 7 6 6 8 14 8 8 12 7 13 13 13 16 17 19 21 26 31 35 32 30 28 27 28 30 28 26 27 27 26 25 23 21 19 17 13 14 12 8 5 3 0 3 4 5 6 6 7
12 6 6 11 10 13 1 9 10 11 15 13 14 16 16 18 22 26 31 30 32 33 30 30 31 31 28 24 25 23 21 20 21 19 17 17 16 15 12 9 6 3 0 3 5 6 7 7 8
3 5 10 12 15 11 12 16 12 12 14 13 17 21 20 21 25 29 23 23 34 37 36 34 33 30 27 25 24 21 21 19 20 19 17 18 17 16 14 11 6 3 0 3 6 8 9 9 10
7 10 4 5 9 18 12 11 10 11 17 19 23 27 30 24 19 19 20 26 39 39 36 32 29 25 24 24 22 22 23 23 23 21 21 19 18 17 14 10 6 3 1 5 7 9 10 11 12
10 3 5 4 5 9 16 11 5 11 15 18 24 29 30 28 17 16 18 30 33 32 35 33 31 28 27 26 27 28 27 26 22 21 21 22 22 18 13 9 6 4 4 5 7 9 12 14 15
9 7 7 4 6 5 5 8 9 12 17 22 29 32 30 25 14 11 19 25 26 30 37 33 32 31 30 30 29 30 30 27 22 22 21 21 19 16 11 8 7 7 8 7 9 10 13 15 18
Wind_Direction
350 339 355 17 224 273 175 75 315 185 164 325 158 155 208 52 123 55 153 157 162 166 160 154 152 147 144 143 138 138 134 130 126 122 118 115 113 107 105 103 100 98 96 95 92 87 79 78 79
355 343 11 5 342 144 291 182 194 177 30 62 137 39 64 71 145 138 149 155 162 165 160 158 155 152 149 146 140 136 132 128 124 120 116 114 110 107 105 103 100 99 98 96 94 90 82 76 73
358 349 355 20 75 100 266 257 266 55 90 46 87 54 10 357 198 150 154 155 162 165 162 160 155 152 151 144 139 135 133 130 125 121 117 115 113 110 107 104 102 102 100 98 96 90 82 75 66
357 351 45 318 218 256 284 329 45 116 95 36 93 98 46 39 137 151 157 159 162 165 164 162 158 155 154 147 144 139 135 130 125 122 122 120 117 114 112 110 108 107 102 95 86 79 75 69 58
6 31 3 60 253 284 292 302 159 110 40 48 33 100 87 135 138 151 160 162 165 168 168 166 161 161 158 154 151 146 141 134 128 128 129 128 125 120 117 116 113 109 102 91 81 67 55 47 43
71 76 152 298 291 295 297 258 161 123 346 60 121 130 148 173 158 157 166 166 169 174 172 169 166 168 165 164 160 154 146 141 135 137 139 136 131 126 124 122 121 119 114 104 86 62 40 24 19
125 103 138 256 328 306 276 188 184 135 224 154 152 157 197 181 168 164 167 169 173 179 178 175 175 175 174 171 168 165 158 153 147 146 147 145 141 138 135 135 133 133 130 128 120 98 27 27 5
127 138 177 220 68 49 85 174 133 159 187 173 181 185 188 185 172 167 167 173 179 183 184 183 182 182 183 179 178 177 172 166 164 160 159 159 159 155 153 153 153 152 147 147 147 136 317 339 349
148 227 225 206 273 7 19 210 169 156 153 191 201 243 210 179 172 167 169 176 185 189 191 188 188 188 189 189 187 186 186 183 182 179 177 176 178 176 175 176 179 179 173 190 215 243 282 300 314
187 233 223 199 238 357 324 258 203 182 175 207 187 208 172 178 174 176 176 181 188 192 195 194 192 192 194 195 196 194 197 200 196 197 195 195 197 193 200 212 214 208 227 231 254 261 273 287 298
171 235 193 225 252 272 300 230 201 223 214 216 204 187 179 182 180 187 189 187 190 193 198 196 196 197 198 200 200 202 206 209 207 209 210 211 214 220 225 233 228 237 245 245 279 274 279 282 290
206 239 197 162 193 241 276 240 241 229 238 289 231 199 190 188 186 186 195 195 191 196 201 201 202 202 202 204 206 208 210 216 218 222 227 231 235 239 241 238 235 244 257 259 269 277 274 277 288
220 215 207 251 256 262 275 256 264 248 204 235 189 195 197 198 194 192 196 199 197 199 202 206 207 211 208 201 205 209 213 218 225 229 238 245 248 246 246 240 234 239 247 260 269 277 281 285 289
207 200 275 278 245 240 246 303 203 262 201 210 201 202 203 204 202 199 204 202 203 201 199 202 206 209 212 210 207 205 210 215 220 221 226 224 227 235 245 253 243 246 258 272 276 284 291 292 295
94 263 273 233 244 236 188 242 225 230 165 203 208 205 206 211 211 213 212 212 210 209 205 205 203 205 207 212 207 202 205 214 216 215 219 222 230 245 251 260 265 266 267 275 286 291 293 296 295
171 217 240 216 203 221 200 252 235 224 190 213 220 211 209 212 220 225 224 223 225 216 213 213 216 213 209 208 209 205 209 215 222 227 231 233 236 247 258 270 277 271 271 274 275 285 288 288 293
43 246 215 261 280 223 217 238 252 337 215 227 230 222 214 219 222 230 234 234 234 231 223 221 223 224 219 214 212 213 216 221 229 236 244 253 253 254 258 268 273 272 274 273 280 290 289 289 298
247 246 208 242 105 20 256 266 278 286 280 268 235 227 224 221 227 230 233 239 241 241 236 234 233 233 227 223 216 214 218 227 234 244 249 251 263 262 273 277 278 282 274 273 286 307 315 314 307
251 268 274 267 268 296 277 267 269 276 252 258 234 224 228 229 233 233 239 241 240 244 241 237 233 233 228 223 218 220 223 229 242 259 272 263 264 274 280 282 291 288 283 304 299 312 318 314 309
211 264 269 288 280 240 273 279 283 277 261 250 241 222 227 232 226 232 237 239 239 243 245 242 238 233 228 225 223 223 226 227 241 248 271 274 273 271 266 274 278 283 294 300 306 317 307 309 320
239 254 258 275 299 250 272 265 259 241 260 266 257 248 236 235 235 231 234 235 233 236 243 243 241 232 224 224 221 221 223 224 228 235 242 247 249 253 239 233 258 258 261 261 274 287 288 315 327
272 223 250 265 267 269 320 282 259 264 259 251 259 247 243 231 232 236 237 236 237 241 243 239 233 226 219 223 222 223 225 222 228 233 233 228 227 216 220 228 241 227 215 215 284 329 319 325 332
272 221 277 277 259 282 254 256 263 239 251 259 249 237 238 232 225 233 237 243 239 239 235 229 221 217 217 217 222 224 223 223 229 222 212 206 206 203 199 198 179 160 136 44 355 352 343 338 330
291 292 271 246 250 254 258 235 256 243 250 259 254 261 253 240 232 236 238 239 234 228 223 217 215 215 214 217 221 222 221 223 226 209 205 204 201 202 189 196 182 163 70 19 2 350 339 327 324
252 274 283 262 238 262 284 251 250 254 249 250 266 273 260 248 236 233 232 233 224 216 210 205 207 211 215 216 219 219 221 226 225 218 209 209 209 193 183 181 179 171 210 332 341 349 349 341 339
295 249 258 271 272 286 348 259 258 223 254 263 260 266 266 256 243 237 237 224 218 211 204 204 204 207 218 222 219 209 211 217 212 205 210 201 201 190 183 180 178 185 278 7 4 0 353 348 344
23 242 338 281 270 276 260 264 261 247 245 267 316 314 285 257 243 241 230 214 223 212 206 206 207 211 210 203 202 203 210 208 207 203 200 195 189 187 179 179 180 181 88 0 359 354 348 341 333
18 335 285 235 270 260 250 261 267 22 7 3 1 346 329 312 275 248 219 212 227 219 207 206 204 206 194 197 199 202 195 197 198 198 191 187 188 185 183 185 184 208 339 347 346 344 342 336 331
328 354 347 281 306 279 276 266 90 46 11 359 353 350 343 328 289 243 217 222 223 220 208 203 200 194 190 184 184 187 187 187 189 195 191 190 182 193 193 196 205 245 288 309 326 336 338 333 329
69 43 33 347 314 294 274 254 142 39 356 349 342 345 346 339 313 244 227 227 213 213 204 200 193 185 181 182 183 184 185 182 185 197 195 193 191 195 204 215 233 251 276 296 306 316 326 329 326
Height
1520 1517 1515 1514 1517 1513 1516 1518 1518 1516 1516 1517 1517 1521 1520 1522 1523 1530 1526 1530 1534 1538 1540 1543 1546 1548 1550 1552 1553 1554 1555 1556 1557 1558 1559 1559 1560 1561 1562 1562 1563 1564 1564 1564 1565 1565 1566 1565 1565
1520 1517 1517 1515 1516 1521 1515 1514 1515 1514 1518 1519 1521 1521 1522 1522 1523 1524 1527 1530 1534 1539 1542 1545 1547 1549 1551 1553 1554 1556 1557 1558 1559 1560 1561 1562 1563 1563 1564 1564 1565 1565 1566 1566 1567 1567 1568 1568 1568
1520 1518 1520 1517 1521 1522 1519 1511 1509 1516 1519 1520 1521 1523 1525 1526 1524 1524 1528 1530 1534 1539 1543 1545 1548 1551 1553 1555 1556 1557 1558 1559 1561 1562 1563 1564 1565 1565 1566 1567 1567 1568 1568 1568 1568 1569 1569 1569 1569
1521 1521 1522 1519 1520 1516 1516 1513 1515 1516 1521 1522 1523 1524 1528 1526 1526 1527 1529 1532 1537 1541 1544 1546 1549 1551 1554 1556 1557 1558 1559 1560 1562 1564 1565 1566 1566 1567 1568 1568 1569 1570 1570 1570 1570 1570 1570 1571 1570
1521 1521 1521 1523 1520 1517 1517 1516 1517 1517 1522 1524 1524 1526 1527 1527 1527 1529 1532 1535 1538 1542 1545 1547 1550 1553 1555 1557 1558 1559 1560 1561 1563 1565 1566 1567 1568 1569 1570 1570 1570 1571 1572 1572 1572 1571 1571 1571 1571
1522 1523 1524 1526 1522 1517 1517 1518 1519 1520 1523 1523 1525 1526 1528 1528 1529 1530 1533 1536 1540 1543 1545 1548 1551 1554 1556 1558 1559 1560 1562 1563 1564 1566 1567 1568 1569 1570 1571 1572 1572 1572 1572 1572 1573 1572 1571 1571 1571
1522 1521 1526 1527 1522 1518 1517 1518 1518 1521 1523 1524 1525 1526 1528 1528 1529 1531 1534 1537 1540 1543 1546 1548 1551 1554 1556 1558 1560 1562 1563 1564 1565 1567 1567 1568 1570 1571 1572 1573 1573 1573 1573 1573 1573 1572 1572 1572 1571
1521 1522 1526 1524 1522 1518 1516 1518 1519 1521 1522 1524 1525 1524 1525 1525 1527 1530 1533 1537 1540 1543 1545 1548 1551 1554 1556 1558 1560 1562 1563 1564 1566 1566 1568 1569 1570 1571 1572 1572 1573 1573 1573 1573 1572 1572 1573 1572 1572
1520 1520 1523 1520 1519 1513 1515 1515 1518 1520 1522 1523 1522 1523 1524 1525 1526 1529 1532 1536 1539 1542 1544 1547 1549 1553 1556 1558 1560 1561 1563 1564 1566 1567 1568 1569 1570 1571 1572 1573 1573 1573 1573 1573 1572 1572 1572 1572 1571
1518 1519 1517 1516 1515 1513 1514 1515 1517 1519 1519 1521 1522 1521 1523 1526 1527 1529 1530 1533 1536 1539 1543 1545 1548 1551 1554 1557 1558 1560 1562 1564 1565 1566 1568 1569 1570 1570 1571 1572 1572 1573 1573 1572 1572 1572 1571 1570 1570
1517 1515 1515 1514 1515 1515 1515 1515 1515 1514 1514 1515 1516 1519 1522 1525 1527 1529 1530 1532 1534 1538 1541 1544 1547 1550 1552 1555 1557 1559 1561 1562 1564 1565 1566 1568 1569 1570 1570 1571 1571 1572 1572 1572 1571 1571 1570 1569 1568
1516 1514 1514 1515 1515 1515 1514 1513 1512 1512 1512 1512 1513 1516 1521 1523 1524 1526 1530 1532 1534 1537 1540 1542 1545 1548 1550 1553 1556 1558 1559 1561 1562 1564 1565 1566 1568 1568 1569 1569 1569 1570 1570 1570 1570 1570 1568 1568 1567
1515 1513 1514 1513 1513 1513 1512 1512 1512 1507 1509 1510 1512 1514 1518 1521 1524 1526 1529 1532 1534 1536 1539 1541 1544 1547 1549 1551 1554 1556 1558 1559 1561 1562 1564 1565 1566 1566 1566 1566 1567 1567 1567 1567 1568 1567 1567 1565 1565
1513 1513 1513 1511 1511 1511 1510 1511 1512 1502 1505 1507 1511 1513 1515 1518 1520 1524 1525 1529 1532 1535 1537 1540 1542 1545 1548 1550 1552 1554 1556 1558 1559 1560 1562 1562 1563 1564 1564 1564 1564 1564 1565 1565 1565 1565 1564 1562 1561
1514 1513 1512 1509 1508 1508 1509 1510 1506 1503 1504 1505 1506 1510 1514 1516 1519 1519 1522 1525 1528 1532 1536 1537 1540 1543 1545 1548 1550 1552 1554 1556 1557 1558 1559 1560 1561 1561 1561 1561 1562 1562 1562 1562 1562 1561 1560 1559 1557
1512 1513 1513 1504 1507 1506 1507 1506 1500 1503 1504 1505 1506 1507 1509 1511 1512 1516 1519 1522 1524 1529 1531 1535 1538 1540 1543 1545 1548 1550 1551 1553 1555 1556 1557 1557 1557 1557 1559 1560 1560 1560 1559 1559 1558 1557 1556 1554 1553
1514 1513 1517 1508 1507 1505 1505 1501 1497 1498 1501 1503 1504 1504 1505 1506 1509 1511 1514 1516 1519 1524 1528 1532 1534 1537 1541 1543 1546 1547 1549 1550 1552 1553 1554 1554 1555 1556 1557 1557 1557 1556 1556 1555 1554 1553 1552 1550 1548
1514 1515 1515 1513 1507 1506 1506 1503 1497 1498 1499 1499 1500 1500 1501 1500 1501 1504 1508 1511 1515 1518 1523 1528 1531 1534 1537 1540 1542 1543 1544 1546 1549 1550 1551 1552 1553 1552 1553 1553 1553 1553 1552 1552 1551 1551 1549 1547 1544
1513 1515 1514 1509 1507 1510 1502 1501 1496 1495 1496 1493 1492 1494 1495 1494 1495 1499 1501 1504 1509 1512 1516 1520 1524 1527 1531 1533 1536 1538 1540 1542 1545 1546 1548 1549 1550 1550 1550 1550 1550 1549 1548 1548 1548 1547 1545 1542 1541
1514 1514 1510 1508 1505 1507 1498 1496 1490 1488 1487 1486 1485 1486 1487 1487 1490 1492 1495 1497 1500 1505 1508 1512 1515 1520 1525 1529 1532 1533 1536 1539 1542 1543 1544 1545 1546 1546 1546 1547 1548 1547 1546 1546 1545 1544 1542 1540 1538
1510 1510 1510 1509 1504 1501 1500 1493 1485 1481 1483 1482 1481 1480 1483 1482 1482 1485 1487 1489 1495 1498 1501 1505 1509 1513 1518 1523 1525 1528 1532 1535 1538 1540 1541 1542 1543 1543 1543 1543 1543 1543 1543 1542 1542 1541 1540 1538 1537
1509 1500 1501 1504 1507 1506 1497 1501 1484 1478 1478 1477 1474 1474 1474 1476 1477 1480 1481 1483 1488 1492 1495 1499 1504 1508 1512 1516 1519 1523 1527 1529 1532 1535 1537 1538 1539 1540 1540 1540 1540 1540 1540 1540 1539 1538 1538 1537 1536
1499 1497 1498 1498 1500 1504 1495 1502 1478 1479 1474 1468 1468 1468 1467 1469 1472 1473 1475 1480 1483 1485 1489 1493 1498 1504 1508 1512 1517 1522 1525 1528 1529 1531 1533 1535 1536 1538 1538 1538 1538 1539 1538 1537 1536 1536 1535 1535 1534
1495 1495 1497 1500 1498 1500 1485 1492 1475 1471 1466 1461 1461 1460 1459 1461 1463 1466 1470 1473 1477 1480 1484 1489 1494 1500 1505 1508 1512 1516 1520 1524 1526 1528 1530 1533 1533 1535 1536 1537 1537 1538 1538 1537 1535 1534 1534 1534 1533
1496 1500 1505 1501 1495 1489 1473 1485 1471 1461 1458 1458 1456 1457 1457 1458 1459 1461 1464 1466 1471 1475 1479 1485 1490 1496 1501 1505 1510 1515 1519 1522 1523 1524 1527 1530 1531 1533 1534 1535 1536 1536 1536 1536 1535 1534 1533 1534 1533
1501 1499 1499 1508 1498 1482 1481 1477 1461 1456 1455 1456 1456 1455 1455 1454 1455 1456 1457 1461 1465 1471 1475 1481 1486 1491 1498 1500 1505 1510 1515 1518 1520 1522 1524 1527 1528 1531 1532 1535 1535 1536 1536 1535 1534 1532 1532 1531 1530
1501 1500 1499 1494 1482 1490 1473 1459 1457 1455 1454 1454 1458 1457 1455 1451 1449 1449 1456 1461 1460 1464 1470 1476 1481 1486 1491 1493 1499 1505 1511 1514 1517 1520 1522 1525 1527 1530 1531 1534 1535 1535 1535 1534 1533 1532 1530 1529 1529
1517 1514 1503 1491 1500 1493 1467 1469 1462 1463 1470 1467 1464 1462 1458 1455 1452 1452 1450 1453 1452 1458 1467 1473 1477 1482 1485 1489 1495 1501 1506 1512 1514 1516 1518 1521 1527 1530 1531 1532 1531 1534 1533 1534 1532 1531 1529 1528 1527
1521 1518 1524 1519 1505 1494 1480 1463 1477 1480 1479 1475 1471 1467 1461 1452 1449 1449 1449 1445 1449 1455 1461 1465 1469 1474 1480 1485 1490 1496 1501 1505 1511 1517 1516 1518 1518 1528 1530 1529 1530 1532 1532 1531 1530 1529 1527 1526 1524
1533 1540 1539 1532 1513 1520 1510 1479 1476 1477 1481 1479 1473 1465 1459 1456 1451 1449 1447 1448 1448 1450 1454 1459 1464 1469 1474 1478 1484 1490 1495 1497 1500 1509 1517 1521 1521 1525 1528 1529 1530 1529 1531 1529 1528 1526 1524 1522 1521